DW4248 Weather Reports


Display with metric or nautical units.
time (UTC)temp
F
wind
direction
speed
MPH
gust
MPH
rain 1hr
in
rain 24hr
in
rain mn
in
humidity
%
barometer
mb
20260902210903 100 4 1.0 7.0 0.00 0.00 0.00 41 1013.8
20260902210004 100 143 1.0 7.0 0.00 0.00 0.00 41 1014.0
20260902205403 100 144 1.0 5.0 0.00 0.00 0.00 40 1014.0
20260902204503 100 222 2.0 6.0 0.00 0.00 0.00 40 1014.0
20260902203603 101 157 1.0 4.0 0.00 0.00 0.00 41 1014.2
20260902202703 100 154 1.0 4.0 0.00 0.00 0.00 42 1014.3
20260902201803 100 183 1.0 4.0 0.00 0.00 0.00 42 1014.4
20260902200903 100 143 1.0 2.0 0.00 0.00 0.00 42 1014.5
20260902200003 99 165 1.0 2.0 0.00 0.00 0.00 46 1014.7
20260902195403 98 275 1.0 3.0 0.00 0.00 0.00 46 1014.7
20260902194503 98 301 1.0 4.0 0.00 0.00 0.00 44 1014.8
20260902193603 99 264 1.0 4.0 0.00 0.00 0.00 43 1014.9
20260902192703 100 158 1.0 3.0 0.00 0.00 0.00 43 1014.9
20260902191803 99 285 2.0 6.0 0.00 0.00 0.00 44 1015.0
20260902190903 99 138 2.0 4.0 0.00 0.00 0.00 45 1015.0
20260902190003 99 140 1.0 3.0 0.00 0.00 0.00 48 1015.2
20260902185403 98 303 1.0 5.0 0.00 0.00 0.00 49 1015.2
20260902184503 98 339 2.0 5.0 0.00 0.00 0.00 48 1015.4
20260902183603 98 164 2.0 6.0 0.00 0.00 0.00 49 1015.5
20260902182703 96 327 2.0 8.0 0.00 0.00 0.00 50 1015.5
20260902181803 96 342 3.0 11.0 0.00 0.00 0.00 50 1015.6
20260902180903 96 345 4.0 13.0 0.00 0.00 0.00 50 1015.7
20260902180006 96 335 2.0 13.0 0.00 0.00 0.00 48 1015.8
20260902175403 96 292 2.0 7.0 0.00 0.00 0.00 49 1015.9
20260902174503 96 184 2.0 5.0 0.00 0.00 0.00 49 1016.0
20260902173603 96 164 2.0 7.0 0.00 0.00 0.00 53 1016.1
20260902172703 95 208 1.0 7.0 0.00 0.00 0.00 53 1016.2
20260902171803 94 347 2.0 8.0 0.00 0.00 0.00 54 1016.4
20260902170903 94 343 2.0 6.0 0.00 0.00 0.00 53 1016.5
20260902170003 94 336 2.0 9.0 0.00 0.00 0.00 56 1016.6
20260902165403 94 330 2.0 9.0 0.00 0.00 0.00 54 1016.7
20260902164503 94 225 1.0 7.0 0.00 0.00 0.00 54 1016.7
20260902163603 93 340 3.0 10.0 0.00 0.00 0.00 55 1016.8
20260902162703 93 346 2.0 8.0 0.00 0.00 0.00 55 1016.8
20260902161803 93 301 2.0 5.0 0.00 0.00 0.00 55 1016.8
20260902160903 93 310 2.0 6.0 0.00 0.00 0.00 55 1016.8
20260902160004 92 211 1.0 5.0 0.00 0.00 0.00 56 1016.9
20260902155403 92 319 1.0 7.0 0.00 0.00 0.00 56 1016.9
20260902154503 92 313 2.0 4.0 0.00 0.00 0.00 56 1016.9
20260902153603 92 261 2.0 10.0 0.00 0.00 0.00 55 1016.9
20260902152703 91 256 1.0 5.0 0.00 0.00 0.00 58 1016.8
20260902151803 91 178 2.0 6.0 0.00 0.00 0.00 57 1016.8
20260902150903 90 184 2.0 8.0 0.00 0.00 0.00 59 1016.8
20260902150003 90 173 2.0 8.0 0.00 0.00 0.00 59 1016.8
20260902145403 90 165 2.0 6.0 0.00 0.00 0.00 60 1016.8
20260902144503 89 289 2.0 8.0 0.00 0.00 0.00 61 1016.8
20260902143603 88 185 1.0 4.0 0.00 0.00 0.00 61 1016.8
20260902142705 87 199 1.0 7.0 0.00 0.00 0.00 63 1016.8
20260902141803 87 146 1.0 5.0 0.00 0.00 0.00 66 1016.8
20260902140903 86 223 1.0 3.0 0.00 0.00 0.00 65 1016.8
20260902140003 85 246 1.0 3.0 0.00 0.00 0.00 68 1017.0
20260902135403 85 203 1.0 3.0 0.00 0.00 0.00 68 1017.0
20260902134503 84 59 0.0 3.0 0.00 0.00 0.00 69 1017.0
20260902133603 83 220 0.0 2.0 0.00 0.00 0.00 71 1017.1
20260902132724 82 215 0.0 1.0 0.00 0.00 0.00 73 1017.2
20260902131824 82 228 0.0 2.0 0.00 0.00 0.00 73 1017.2
20260902130924 81 0 0.0 1.0 0.00 0.00 0.00 74 1017.2
20260902130024 81 162 0.0 1.0 0.00 0.00 0.00 75 1017.1
20260902125424 81 129 0.0 1.0 0.00 0.00 0.00 74 1017.1
20260902124504 81 131 0.0 1.0 0.00 0.00 0.00 75 1017.0
20260902123603 80 129 0.0 1.0 0.00 0.00 0.00 75 1017.0
20260902122703 80 129 0.0 1.0 0.00 0.00 0.00 75 1016.9
20260902121810 80 129 0.0 1.0 0.00 0.00 0.00 76 1016.8
20260902120903 80 129 0.0 1.0 0.00 0.00 0.00 76 1016.8
20260902120004 80 129 0.0 1.0 0.00 0.00 0.00 75 1016.7
20260902115403 80 129 0.0 1.0 0.00 0.00 0.00 75 1016.6
20260902114503 80 129 0.0 1.0 0.00 0.00 0.00 74 1016.6
20260902113603 80 130 0.0 1.0 0.00 0.00 0.00 74 1016.5
20260902112703 80 129 0.0 1.0 0.00 0.00 0.00 74 1016.4
20260902111803 80 128 0.0 1.0 0.00 0.00 0.00 74 1016.4
20260902110903 81 128 0.0 1.0 0.00 0.00 0.00 73 1016.4
20260902110005 81 0 0.0 0.0 0.00 0.00 0.00 73 1016.4
20260902105403 81 129 0.0 1.0 0.00 0.00 0.00 73 1016.4
20260902104503 81 132 0.0 1.0 0.00 0.00 0.00 72 1016.3
20260902103603 81 0 0.0 1.0 0.00 0.00 0.00 72 1016.3
20260902102703 81 136 0.0 1.0 0.00 0.00 0.00 72 1016.2
20260902101803 82 145 0.0 1.0 0.00 0.00 0.00 71 1016.2
20260902100903 82 144 0.0 1.0 0.00 0.00 0.00 71 1016.2
20260902100004 82 132 0.0 1.0 0.00 0.00 0.00 70 1016.0
20260902095403 82 130 0.0 1.0 0.00 0.00 0.00 70 1016.1
20260902094503 83 149 0.0 2.0 0.00 0.00 0.00 70 1016.0
20260902093603 83 148 0.0 2.0 0.00 0.00 0.00 70 1015.9
20260902092703 83 141 0.0 2.0 0.00 0.00 0.00 70 1015.8
20260902091803 83 126 0.0 1.0 0.00 0.00 0.00 70 1015.8
20260902090903 83 153 0.0 1.0 0.00 0.00 0.00 70 1015.8
20260902090004 83 117 0.0 1.0 0.00 0.00 0.00 70 1015.8
20260902085403 83 118 0.0 1.0 0.00 0.00 0.00 70 1015.7
20260902084503 83 147 0.0 1.0 0.00 0.00 0.00 70 1015.8
20260902083603 83 131 0.0 1.0 0.00 0.00 0.00 70 1015.7
20260902082703 83 133 0.0 1.0 0.00 0.00 0.00 70 1015.6
20260902081803 83 0 0.0 1.0 0.00 0.00 0.00 70 1015.7
20260902080903 83 156 0.0 2.0 0.00 0.00 0.00 70 1015.6
20260902080003 83 137 0.0 1.0 0.00 0.00 0.00 71 1015.5
20260902075403 83 140 0.0 1.0 0.00 0.00 0.00 71 1015.6
20260902074503 83 0 0.0 1.0 0.00 0.00 0.00 71 1015.7
20260902073603 83 196 0.0 1.0 0.00 0.00 0.00 71 1015.8
20260902072703 83 133 0.0 1.0 0.00 0.00 0.00 71 1015.7
20260902071803 83 133 0.0 1.0 0.00 0.00 0.00 70 1015.6
20260902070903 83 232 0.0 1.0 0.00 0.00 0.00 70 1015.6
20260902070004 84 261 0.0 1.0 0.00 0.00 0.00 70 1015.7
20260902065403 84 0 0.0 1.0 0.00 0.00 0.00 70 1015.7
20260902064503 84 145 0.0 1.0 0.00 0.00 0.00 69 1015.7
20260902063603 84 132 0.0 1.0 0.00 0.00 0.00 69 1015.7
20260902062703 84 139 0.0 1.0 0.00 0.00 0.00 68 1015.8
20260902061824 84 140 0.0 1.0 0.00 0.00 0.00 68 1015.8
20260902060924 85 130 0.0 1.0 0.00 0.00 0.00 67 1015.7
20260902060024 85 127 0.0 2.0 0.00 0.00 0.00 67 1015.7
20260902055424 85 139 0.0 1.0 0.00 0.00 0.00 67 1015.7
20260902054524 85 134 0.0 2.0 0.00 0.00 0.00 66 1015.7
20260902053603 85 133 0.0 2.0 0.00 0.00 0.00 66 1015.7
20260902052703 86 122 0.0 4.0 0.00 0.00 0.00 65 1015.7
20260902051803 86 140 0.0 3.0 0.00 0.00 0.00 65 1015.6
20260902050903 86 128 0.0 1.0 0.00 0.00 0.00 65 1015.6
20260902050007 86 130 0.0 2.0 0.00 0.00 0.00 64 1015.7
20260902045403 86 145 0.0 2.0 0.00 0.00 0.00 64 1015.7
20260902044503 86 133 1.0 6.0 0.00 0.00 0.00 63 1015.6
20260902043603 87 137 0.0 1.0 0.00 0.00 0.00 62 1015.6
20260902042703 87 135 1.0 4.0 0.00 0.00 0.00 62 1015.6
20260902041803 87 144 0.0 2.0 0.00 0.00 0.00 61 1015.5
20260902040903 87 144 0.0 2.0 0.00 0.00 0.00 60 1015.4
20260902040003 87 139 0.0 2.0 0.00 0.00 0.00 60 1015.5
20260902035403 87 139 0.0 1.0 0.00 0.00 0.00 59 1015.5
20260902034503 87 130 0.0 1.0 0.00 0.00 0.00 59 1015.6
20260902033603 88 129 0.0 3.0 0.00 0.00 0.00 58 1015.6
20260902032703 88 133 0.0 4.0 0.00 0.00 0.00 58 1015.5
20260902031803 88 139 0.0 1.0 0.00 0.00 0.00 58 1015.5
20260902030903 88 116 0.0 1.0 0.00 0.00 0.00 58 1015.5
20260902030003 88 141 0.0 2.0 0.00 0.00 0.00 57 1015.6
20260902025403 88 145 0.0 2.0 0.00 0.00 0.00 57 1015.5
20260902024503 89 132 0.0 2.0 0.00 0.00 0.00 56 1015.5
20260902023603 89 130 0.0 1.0 0.00 0.00 0.00 56 1015.4
20260902022703 89 141 0.0 1.0 0.00 0.00 0.00 56 1015.3
20260902021803 90 126 0.0 1.0 0.00 0.00 0.00 56 1015.1
20260902020903 90 133 0.0 1.0 0.00 0.00 0.00 56 1015.0
20260902020003 90 139 0.0 2.0 0.00 0.00 0.00 56 1014.9
20260902015403 90 136 0.0 2.0 0.00 0.00 0.00 55 1014.9
20260902014503 91 138 0.0 3.0 0.00 0.00 0.00 55 1014.7
20260902013603 91 129 0.0 2.0 0.00 0.00 0.00 54 1014.6
20260902012703 92 140 0.0 3.0 0.00 0.00 0.00 53 1014.6
20260902011803 92 135 1.0 7.0 0.00 0.00 0.00 52 1014.5
20260902010903 93 138 2.0 7.0 0.00 0.00 0.00 51 1014.4
20260902010003 93 137 2.0 8.0 0.00 0.00 0.00 50 1014.4
20260902005403 93 137 2.0 8.0 0.00 0.00 0.00 50 1014.4
20260902004503 94 139 2.0 10.0 0.00 0.00 0.00 49 1014.4
20260902003603 94 139 3.0 10.0 0.00 0.00 0.00 48 1014.4
20260902002703 94 141 3.0 10.0 0.00 0.00 0.00 48 1014.4
20260902001803 95 139 1.0 9.0 0.00 0.00 0.00 48 1014.4
20260902000903 95 139 2.0 9.0 0.00 0.00 0.00 47 1014.4
20260902000004 96 141 2.0 10.0 0.00 0.00 0.00 47 1014.4
20260901235403 96 138 2.0 10.0 0.00 0.00 0.00 46 1014.4
20260901234503 96 138 1.0 5.0 0.00 0.00 0.00 45 1014.5
20260901233603 96 131 0.0 2.0 0.00 0.00 0.00 44 1014.5
20260901232703 97 139 1.0 6.0 0.00 0.00 0.00 43 1014.6
20260901231803 97 129 0.0 2.0 0.00 0.00 0.00 43 1014.5
20260901230903 97 126 0.0 2.0 0.00 0.00 0.00 43 1014.6
20260901230004 97 131 1.0 3.0 0.00 0.00 0.00 42 1014.5
20260901225403 97 140 0.0 5.0 0.00 0.00 0.00 42 1014.6
20260901224503 97 128 0.0 2.0 0.00 0.00 0.00 42 1014.6
20260901223603 97 134 0.0 3.0 0.00 0.00 0.00 44 1014.6
20260901222703 97 133 0.0 1.0 0.00 0.00 0.00 44 1014.6
20260901221803 97 132 1.0 3.0 0.00 0.00 0.00 43 1014.6
20260901220903 98 122 0.0 3.0 0.00 0.00 0.00 42 1014.6
20260901220003 98 124 1.0 4.0 0.00 0.00 0.00 42 1014.5
20260901215403 98 132 0.0 2.0 0.00 0.00 0.00 42 1014.5
20260901214524 98 131 0.0 3.0 0.00 0.00 0.00 40 1014.5
20260901213624 98 152 0.0 3.0 0.00 0.00 0.00 40 1014.5
20260901212724 99 146 1.0 2.0 0.00 0.00 0.00 39 1014.5
20260901211824 100 168 1.0 3.0 0.00 0.00 0.00 39 1014.5